Orbital Elements
Epoch 2005 Mar. 11.0 TT = JDT 2453440.5
T 2005 Mar. 3.72331 TT MPC
q 1.9422806 (2000.0) P Q
z +0.0014306 Peri. 125.31045 -0.68693893 -0.72454000
+/-0.0000166 Node 8.77197 +0.48742927 -0.51671425
e 0.9972214 Incl. 21.61803 +0.53900614 -0.45612297
>From 91 observations 2004 Aug. 19-Dec. 16, mean residual 0".57.
|